Location: B?dargowo
(53.3916°N, 14.4413°E)
Time: 10:36:09
(UTC+00:00)

Cosmos 1980 Rocket - Pass Details

Date: 05 February 2023
Orbit: 828 x 851 km, 71.0° (Epoch: 19 March)

Event Time Altitude Azimuth Distance (km) Brightness Sun altitude
Rises 16:27:55 0° 222° (SW) 3,388 6.6 -5.7°
Reaches altitude 10° 16:30:23 10° 226° (SW) 2,460 5.8 -6.0°
Maximum altitude 16:35:59 62° 307° (NW) 951 2.7 -6.8°
Drops below altitude 10° 16:41:39 10° 28° (NNE) 2,487 4.2 -7.6°
Enters shadow 16:44:05 - 32° (NNE) 3,401 4.9 -8.0°
